• Em Portugal
  • Lista de países
  • Para 7 dias
  • Temperatura da água
  • Mapas de satélite
  • Mapa do tempo
  • Widgets de tempo
  • user-avatar
    Iniciar Sessão

    Previsão horária em Aksaraj

    Hoje, 22 Setembro, Sábado

    Tempo Temperatura Precipitação Vento Pressão Humidade
    00:00 +19°C° 0 mm 1 m/s 679 mmHg 36%
    01:00 +19°C° 0 mm 1 m/s 679 mmHg 38%
    02:00 +16°C° 0 mm 0 m/s 678 mmHg 39%
    03:00 +15°C° 0 mm 0 m/s 678 mmHg 41%
    04:00 +15°C° 0 mm 0 m/s 678 mmHg 42%
    05:00 +14°C° 0 mm 0 m/s 678 mmHg 44%
    06:00 +16°C° 0 mm 0 m/s 679 mmHg 38%
    07:00 +21°C° 0 mm 1 m/s 679 mmHg 33%
    08:00 +23°C° 0 mm 1 m/s 680 mmHg 28%
    09:00 +24°C° 0 mm 1 m/s 680 mmHg 27%
    10:00 +25°C° 0 mm 1 m/s 680 mmHg 25%
    11:00 +27°C° 0 mm 1 m/s 680 mmHg 23%
    12:00 +27°C° 0 mm 1 m/s 680 mmHg 22%
    13:00 +28°C° 0 mm 2 m/s 680 mmHg 20%
    14:00 +29°C° 0 mm 2 m/s 680 mmHg 18%
    15:00 +28°C° 0 mm 2 m/s 680 mmHg 19%
    16:00 +28°C° 0 mm 2 m/s 679 mmHg 19%
    17:00 +28°C° 0 mm 3 m/s 679 mmHg 20%
    18:00 +26°C° 0 mm 2 m/s 679 mmHg 22%
    19:00 +24°C° 0 mm 2 m/s 679 mmHg 25%
    20:00 +22°C° 0 mm 1 m/s 679 mmHg 28%
    21:00 +22°C° 0 mm 1 m/s 679 mmHg 29%
    22:00 +21°C° 0 mm 1 m/s 679 mmHg 30%
    23:00 +20°C° 0 mm 1 m/s 679 mmHg 31%

    Amanhã, 23 Setembro, Domingo

    Tempo Temperatura Precipitação Vento Pressão Humidade
    00:00 +20°C° 0 mm 1 m/s 679 mmHg 32%
    01:00 +19°C° 0 mm 1 m/s 679 mmHg 33%
    02:00 +19°C° 0 mm 1 m/s 679 mmHg 34%
    03:00 +18°C° 0 mm 1 m/s 679 mmHg 35%
    04:00 +18°C° 0 mm 1 m/s 679 mmHg 37%
    05:00 +16°C° 0 mm 1 m/s 679 mmHg 38%
    06:00 +19°C° 0 mm 1 m/s 680 mmHg 34%
    07:00 +21°C° 0 mm 1 m/s 681 mmHg 30%
    08:00 +24°C° 0 mm 1 m/s 681 mmHg 26%
    09:00 +25°C° 0 mm 1 m/s 682 mmHg 24%
    10:00 +26°C° 0 mm 1 m/s 682 mmHg 22%
    11:00 +27°C° 0 mm 2 m/s 682 mmHg 21%
    12:00 +28°C° 0 mm 2 m/s 682 mmHg 19%
    13:00 +29°C° 0 mm 2 m/s 682 mmHg 18%
    14:00 +29°C° 0 mm 3 m/s 681 mmHg 17%
    15:00 +29°C° 0 mm 3 m/s 681 mmHg 17%
    16:00 +28°C° 0 mm 3 m/s 681 mmHg 18%
    17:00 +28°C° 0 mm 3 m/s 681 mmHg 19%
    18:00 +26°C° 0 mm 2 m/s 681 mmHg 21%
    19:00 +25°C° 0 mm 2 m/s 681 mmHg 24%
    20:00 +23°C° 0 mm 1 m/s 681 mmHg 27%
    21:00 +22°C° 0 mm 1 m/s 681 mmHg 28%
    22:00 +22°C° 0 mm 1 m/s 681 mmHg 30%
    23:00 +21°C° 0 mm 1 m/s 681 mmHg 32%

    Depois de amanhã, 24 Setembro, Segunda-feira

    Tempo Temperatura Precipitação Vento Pressão Humidade
    00:00 +20°C° 0 mm 1 m/s 681 mmHg 33%
    01:00 +20°C° 0 mm 1 m/s 681 mmHg 35%
    02:00 +19°C° 0 mm 1 m/s 681 mmHg 37%
    03:00 +19°C° 0 mm 1 m/s 681 mmHg 38%
    04:00 +18°C° 0 mm 1 m/s 680 mmHg 39%
    05:00 +18°C° 0 mm 1 m/s 680 mmHg 41%
    06:00 +20°C° 0 mm 1 m/s 681 mmHg 36%
    07:00 +21°C° 0 mm 1 m/s 681 mmHg 32%
    08:00 +23°C° 0 mm 1 m/s 682 mmHg 28%
    09:00 +25°C° 0 mm 1 m/s 682 mmHg 25%
    10:00 +26°C° 0 mm 1 m/s 682 mmHg 22%
    11:00 +26°C° 0 mm 0 m/s 682 mmHg 19%
    12:00 +29°C° 0 mm 1 m/s 681 mmHg 18%
    13:00 +29°C° 0 mm 1 m/s 681 mmHg 17%
    14:00 +30°C° 0 mm 1 m/s 681 mmHg 16%
    15:00 +30°C° 0 mm 1 m/s 680 mmHg 16%
    16:00 +29°C° 0 mm 2 m/s 680 mmHg 17%
    17:00 +29°C° 0 mm 2 m/s 680 mmHg 17%
    18:00 +27°C° 0 mm 1 m/s 679 mmHg 20%
    19:00 +25°C° 0 mm 1 m/s 679 mmHg 22%
    20:00 +23°C° 0 mm 1 m/s 679 mmHg 25%
    21:00 +23°C° 0 mm 1 m/s 679 mmHg 26%
    22:00 +22°C° 0 mm 1 m/s 679 mmHg 27%
    23:00 +22°C° 0 mm 1 m/s 678 mmHg 28%

    25 Setembro, Terça-feira

    Tempo Temperatura Precipitação Vento Pressão Humidade
    00:00 +19°C° 0 mm 0 m/s 678 mmHg 29%
    01:00 +18°C° 0 mm 0 m/s 678 mmHg 30%
    02:00 +18°C° 0 mm 0 m/s 678 mmHg 31%
    03:00 +17°C° 0 mm 0 m/s 677 mmHg 32%
    04:00 +17°C° 0 mm 0 m/s 677 mmHg 33%
    05:00 +16°C° 0 mm 0 m/s 677 mmHg 34%
    06:00 +19°C° 0 mm 0 m/s 678 mmHg 30%
    07:00 +21°C° 0 mm 0 m/s 679 mmHg 25%
    08:00 +24°C° 0 mm 0 m/s 679 mmHg 21%
    09:00 +27°C° 0 mm 1 m/s 679 mmHg 20%
    10:00 +28°C° 0 mm 1 m/s 679 mmHg 18%
    11:00 +29°C° 0 mm 1 m/s 679 mmHg 17%
    12:00 +30°C° 0 mm 2 m/s 679 mmHg 16%
    13:00 +30°C° 0 mm 2 m/s 678 mmHg 16%
    14:00 +31°C° 0 mm 2 m/s 678 mmHg 15%
    15:00 +30°C° 0 mm 3 m/s 678 mmHg 16%
    16:00 +30°C° 0 mm 3 m/s 678 mmHg 17%
    17:00 +29°C° 0 mm 3 m/s 678 mmHg 17%
    18:00 +27°C° 0 mm 4 m/s 678 mmHg 26%
    19:00 +25°C° 0 mm 5 m/s 678 mmHg 34%
    20:00 +22°C° 0 mm 6 m/s 678 mmHg 42%
    21:00 +21°C° 0 mm 6 m/s 678 mmHg 49%
    22:00 +20°C° 0 mm 5 m/s 678 mmHg 55%
    23:00 +19°C° 0 mm 5 m/s 678 mmHg 62%

    26 Setembro, Quarta-feira

    Tempo Temperatura Precipitação Vento Pressão Humidade
    00:00 +17°C° 0 mm 5 m/s 678 mmHg 66%
    01:00 +16°C° 0 mm 6 m/s 678 mmHg 70%
    02:00 +15°C° 0 mm 6 m/s 678 mmHg 74%
    03:00 +15°C° 0 mm 5 m/s 678 mmHg 75%
    04:00 +15°C° 0 mm 5 m/s 678 mmHg 75%
    05:00 +14°C° 0 mm 5 m/s 678 mmHg 76%
    06:00 +14°C° 0 mm 5 m/s 679 mmHg 73%
    07:00 +15°C° 0 mm 5 m/s 679 mmHg 70%
    08:00 +15°C° 0 mm 5 m/s 679 mmHg 67%
    09:00 +16°C° 0 mm 5 m/s 679 mmHg 63%
    10:00 +17°C° 0 mm 5 m/s 679 mmHg 58%
    11:00 +19°C° 0 mm 5 m/s 679 mmHg 54%
    12:00 +19°C° 0 mm 6 m/s 679 mmHg 52%
    13:00 +19°C° 0 mm 6 m/s 679 mmHg 51%
    14:00 +18°C° 0 mm 7 m/s 678 mmHg 49%
    15:00 +17°C° 0 mm 7 m/s 678 mmHg 51%
    16:00 +16°C° 0 mm 7 m/s 678 mmHg 53%
    17:00 +15°C° 0 mm 7 m/s 678 mmHg 55%
    18:00 +14°C° 0 mm 7 m/s 678 mmHg 59%
    19:00 +13°C° 0 mm 6 m/s 678 mmHg 63%
    20:00 +11°C° 0 mm 6 m/s 678 mmHg 67%
    21:00 +10°C° 0 mm 6 m/s 678 mmHg 68%
    22:00 +10°C° 0 mm 5 m/s 677 mmHg 70%
    23:00 +10°C° 0 mm 5 m/s 677 mmHg 71%

    27 Setembro, Quinta-feira

    Tempo Temperatura Precipitação Vento Pressão Humidade
    00:00 +9°C° 0.2 mm 5 m/s 677 mmHg 72%
    01:00 +9°C° 0.2 mm 5 m/s 676 mmHg 73%
    02:00 +9°C° 0.2 mm 5 m/s 676 mmHg 74%
    03:00 +8°C° 0.7 mm 5 m/s 676 mmHg 74%
    04:00 +8°C° 0.7 mm 6 m/s 676 mmHg 74%
    05:00 +8°C° 0.7 mm 6 m/s 675 mmHg 74%
    06:00 +8°C° 0.4 mm 6 m/s 675 mmHg 73%
    07:00 +8°C° 0.4 mm 6 m/s 675 mmHg 71%
    08:00 +8°C° 0.4 mm 6 m/s 675 mmHg 70%
    09:00 +8°C° 0.2 mm 6 m/s 675 mmHg 67%
    10:00 +9°C° 0.2 mm 7 m/s 675 mmHg 63%
    11:00 +10°C° 0.2 mm 7 m/s 675 mmHg 60%
    12:00 +10°C° 0.3 mm 8 m/s 675 mmHg 60%
    13:00 +10°C° 0.3 mm 8 m/s 674 mmHg 60%
    14:00 +10°C° 0.3 mm 9 m/s 674 mmHg 59%
    15:00 +10°C° 0.3 mm 9 m/s 674 mmHg 61%
    16:00 +8°C° 0.3 mm 9 m/s 674 mmHg 62%
    17:00 +8°C° 0.3 mm 9 m/s 673 mmHg 64%
    18:00 +7°C° 0.3 mm 9 m/s 673 mmHg 65%
    19:00 +7°C° 0.3 mm 9 m/s 673 mmHg 67%
    20:00 +7°C° 0.3 mm 9 m/s 673 mmHg 68%
    21:00 +6°C° 0.6 mm 9 m/s 673 mmHg 70%
    22:00 +6°C° 0.6 mm 9 m/s 673 mmHg 71%
    23:00 +6°C° 0.6 mm 8 m/s 672 mmHg 73%
    Mostrar mais